Gadsden, AL

6:10 AM CST on November 14, 2019 (GMT -0600)
Gadsden Municipal

Weather History for KGAD - May, 2019

Change the Weather History Date:

Friday, May 10, 2019

  Actual Average Record
Temperature  
Mean Temperature 71 °F -  
Max Temperature 81 °F 77 °F 94 °F (1936)
Min Temperature 62 °F 53 °F 36 °F (1947)
Cooling Degree Days 6    
Growing Degree Days 21 (Base 50)    
Moisture  
Dew Point 69 °F    
Average Humidity 84    
Maximum Humidity 100    
Minimum Humidity 69    
Precipitation  
Precipitation 0.12 in - - ()
Sea Level Pressure  
Sea Level Pressure 30.03 in    
Wind  
Wind Speed 2 mph (ENE)    
Max Wind Speed 7 mph    
Max Gust Speed -    
Visibility 5 miles    
Events Fog , Rain    
Averages and records for this station are not official NWS values.
T = Trace of Precipitation, MM = Missing Value Source: NWS Daily Summary

Daily Weather History Graph

Daily Weather History Graph

Search for Another Location

Airport or City:

Astronomy

May. 10, 2019 Rise Set
Actual Time 5:47 AM CDT 7:34 PM CDT
Civil Twilight 5:19 AM CDT 8:02 PM CDT
Nautical Twilight 4:46 AM CDT 8:35 PM CDT
Astronomical Twilight 4:12 AM CDT 9:10 PM CDT
Moon 10:49 AM CDT (5/10) 12:24 AM CDT (5/10)
Length of Visible Light 14h 42m
Length of Day
13h 47m
Waxing Crescent, 35% of the Moon is Illuminated
May 10
Waxing Crescent
May 11
First Quarter
May 18
Full
May 26
Last Quarter
Jun 3
New

Hourly Weather History & Observations

Time (CDT) Temp. Heat Index Dew Point Humidity Pressure Visibility Wind Dir Wind Speed Gust Speed Precip Events Conditions
12:22 AM 62.6 °F - - N/A% 30.02 in 0.2 mi Calm Calm - N/A Fog Fog
12:31 AM 62.6 °F - - N/A% 30.03 in 0.5 mi Calm Calm - N/A Fog Fog
12:56 AM 63.0 °F - - N/A% 30.03 in 0.5 mi Calm Calm - N/A Fog Fog
1:05 AM 62.6 °F - - N/A% 30.02 in 1.0 mi Calm Calm - N/A   Mostly Cloudy
1:09 AM 62.6 °F - - N/A% 30.01 in 2.5 mi Calm Calm - N/A   Mostly Cloudy
1:16 AM 62.6 °F - - N/A% 30.01 in 4.0 mi NE 3.5 mph - N/A   Haze
1:25 AM 64.4 °F - - N/A% 30.02 in 1.8 mi Calm Calm - N/A   Overcast
1:30 AM 64.4 °F - - N/A% 30.02 in 0.8 mi Calm Calm - N/A   Overcast
1:39 AM 64.4 °F - - N/A% 30.01 in 0.2 mi NNE 3.5 mph - N/A Fog Fog
1:56 AM 64.0 °F - - N/A% 30.01 in 0.2 mi NNE 3.5 mph - N/A Fog Fog
2:35 AM 64.4 °F - - N/A% 29.99 in 0.5 mi NE 4.6 mph - N/A Fog Fog
2:43 AM 64.4 °F - - N/A% 29.99 in 1.0 mi ENE 4.6 mph - N/A   Overcast
2:53 AM 64.4 °F - - N/A% 30.00 in 1.2 mi NE 5.8 mph - N/A   Overcast
2:56 AM 64.0 °F - - N/A% 30.00 in 1.2 mi NE 5.8 mph - N/A   Overcast
3:16 AM 64.4 °F - - N/A% 30.00 in 3.0 mi NE 6.9 mph - N/A   Overcast
3:56 AM 64.0 °F - 64.0 °F 100% 30.02 in 10.0 mi East 4.6 mph - N/A   Overcast
4:56 AM 64.0 °F - 64.0 °F 100% 30.02 in 3.0 mi East 3.5 mph - N/A   Overcast
5:22 AM 62.6 °F - - N/A% 30.02 in 2.5 mi ENE 6.9 mph - N/A   Overcast
5:29 AM 62.6 °F - - N/A% 30.02 in 1.0 mi East 4.6 mph - N/A   Overcast
5:37 AM 62.6 °F - - N/A% 30.02 in 0.8 mi East 5.8 mph - N/A   Overcast
6:04 AM 62.6 °F - - N/A% 30.02 in 1.5 mi ENE 5.8 mph - N/A   Overcast
6:22 AM 62.6 °F - - N/A% 30.03 in 2.5 mi ENE 3.5 mph - N/A   Overcast
6:35 AM 62.6 °F - - N/A% 30.04 in 4.0 mi ENE 5.8 mph - N/A   Haze
6:56 AM 64.0 °F - - N/A% 30.05 in 10.0 mi East 4.6 mph - N/A   Overcast
7:56 AM 64.9 °F - - N/A% 30.07 in 10.0 mi NNE 4.6 mph - N/A   Overcast
8:56 AM 66.9 °F - - N/A% 30.07 in 10.0 mi ENE 3.5 mph - N/A   Overcast
9:56 AM 68.0 °F - 68.0 °F 100% 30.09 in 10.0 mi Calm Calm - N/A   Overcast
10:31 AM 69.8 °F - 69.8 °F 100% 30.08 in 10.0 mi NNE 3.5 mph - N/A   Overcast
10:56 AM 69.1 °F - 68.0 °F 96% 30.09 in 10.0 mi Calm Calm - N/A   Overcast
11:25 AM 71.6 °F - 69.8 °F 94% 30.10 in 10.0 mi North 3.5 mph - N/A   Overcast
11:56 AM 73.9 °F - 68.0 °F 82% 30.08 in 10.0 mi East 3.5 mph - N/A   Overcast
12:56 PM 75.9 °F - 69.1 °F 79% 30.08 in 10.0 mi Calm Calm - N/A   Mostly Cloudy
1:25 PM 78.8 °F - 68.0 °F 69% 30.07 in 10.0 mi Variable 4.6 mph - N/A   Scattered Clouds
1:36 PM 78.8 °F - 68.0 °F 69% 30.07 in 10.0 mi Calm Calm - N/A   Mostly Cloudy
1:56 PM 78.1 °F - 68.0 °F 71% 30.07 in 10.0 mi ESE 4.6 mph - N/A   Overcast
2:21 PM 78.8 °F - 68.0 °F 69% 30.06 in 10.0 mi Calm Calm - N/A   Scattered Clouds
2:56 PM 78.1 °F - 68.0 °F 71% 30.05 in 10.0 mi Calm Calm - N/A   Scattered Clouds
3:56 PM 80.1 °F 82.9 °F 69.1 °F 69% 30.03 in 10.0 mi Variable 3.5 mph - N/A   Mostly Cloudy
4:56 PM 78.1 °F - 70.0 °F 76% 30.02 in 10.0 mi Calm Calm - N/A   Mostly Cloudy
5:56 PM 77.0 °F - 72.0 °F 84% 30.02 in 10.0 mi Calm Calm - N/A   Mostly Cloudy
6:56 PM 73.0 °F - 73.0 °F 100% 30.02 in 10.0 mi Calm Calm - 0.02 in Rain Light Rain
7:56 PM 71.1 °F - - N/A% 30.04 in 6.0 mi West 3.5 mph - 0.04 in Rain Heavy Rain
8:56 PM 70.0 °F - - N/A% 30.04 in 10.0 mi Calm Calm - 0.05 in Rain Light Rain
9:56 PM 70.0 °F - - N/A% 30.03 in 8.0 mi Calm Calm - 0.01 in   Clear
10:22 PM 69.8 °F - - N/A% 30.03 in 2.5 mi Calm Calm - N/A   Mostly Cloudy
10:31 PM 69.8 °F - - N/A% 30.02 in 5.0 mi Calm Calm - N/A   Haze
10:56 PM 70.0 °F - - N/A% 30.02 in 5.0 mi Calm Calm - N/A   Haze
11:35 PM 69.8 °F - - N/A% 30.01 in 1.2 mi Calm Calm - N/A   Partly Cloudy
11:40 PM 69.8 °F - - N/A% 30.01 in 0.8 mi Calm Calm - N/A   Partly Cloudy
11:56 PM 68.0 °F - - N/A% 30.01 in 0.5 mi Calm Calm - N/A Fog Fog